TimePST,TemperatureF,Dew PointF,Humidity,Sea Level PressureIn,VisibilityMPH,Wind Direction,Wind SpeedMPH,Gust SpeedMPH,PrecipitationIn,Events,Conditions,WindDirDegrees,DateUTC
12:51 AM,59.0,21.0,23,30.02,10.0,Calm,Calm,-,N/A,,Clear,0,2013-01-08 08:51:00
1:51 AM,57.9,19.0,22,30.04,10.0,Calm,Calm,-,N/A,,Clear,0,2013-01-08 09:51:00
2:51 AM,59.0,15.1,18,30.02,10.0,SE,4.6,-,N/A,,Clear,140,2013-01-08 10:51:00
3:51 AM,55.0,19.9,25,30.03,10.0,WSW,3.5,-,N/A,,Clear,250,2013-01-08 11:51:00
4:51 AM,57.0,18.0,22,30.04,10.0,NW,3.5,-,N/A,,Clear,320,2013-01-08 12:51:00
5:51 AM,57.9,17.1,20,30.03,10.0,Calm,Calm,-,N/A,,Clear,0,2013-01-08 13:51:00
6:51 AM,59.0,15.1,18,30.04,10.0,ESE,3.5,-,N/A,,Clear,120,2013-01-08 14:51:00
8:51 AM,61.0,21.9,22,30.09,10.0,ENE,5.8,-,N/A,,Clear,70,2013-01-08 16:51:00
9:51 AM,66.0,23.0,20,30.08,10.0,ESE,4.6,-,N/A,,Clear,110,2013-01-08 17:51:00
10:51 AM,63.0,39.0,41,30.08,10.0,SSW,3.5,-,N/A,,Clear,210,2013-01-08 18:51:00
11:51 AM,66.9,37.9,34,30.04,10.0,SE,3.5,-,N/A,,Clear,140,2013-01-08 19:51:00
12:51 PM,64.9,43.0,45,30.04,10.0,West,3.5,-,N/A,,Clear,270,2013-01-08 20:51:00
1:51 PM,63.0,41.0,45,30.04,10.0,SW,5.8,-,N/A,,Clear,220,2013-01-08 21:51:00
2:51 PM,64.9,37.9,37,30.04,10.0,SSW,4.6,-,N/A,,Clear,200,2013-01-08 22:51:00
3:51 PM,62.1,43.0,50,30.06,10.0,SSW,3.5,-,N/A,,Clear,200,2013-01-08 23:51:00
4:51 PM,64.0,30.9,29,30.06,10.0,SW,3.5,-,N/A,,Clear,220,2013-01-09 00:51:00
5:51 PM,64.0,21.0,19,30.07,10.0,SW,4.6,-,N/A,,Clear,230,2013-01-09 01:51:00
6:51 PM,64.9,21.0,19,30.07,10.0,Calm,Calm,-,N/A,,Clear,0,2013-01-09 02:51:00
7:51 PM,64.0,21.0,19,30.07,10.0,Calm,Calm,-,N/A,,Clear,0,2013-01-09 03:51:00
8:51 PM,63.0,27.0,26,30.07,10.0,Calm,Calm,-,N/A,,Clear,0,2013-01-09 04:51:00
9:51 PM,63.0,27.0,26,30.07,10.0,Calm,Calm,-,N/A,,Clear,0,2013-01-09 05:51:00
10:51 PM,61.0,28.0,29,30.10,10.0,Calm,Calm,-,N/A,,Clear,0,2013-01-09 06:51:00
11:51 PM,62.1,30.0,30,30.08,10.0,Calm,Calm,-,N/A,,Clear,0,2013-01-09 07:51:00